User: anonymous   Login
Location: Jetmore Oil Field
(38.1181°N, 99.9337°W)
Time: 20:47:11
(UTC+00:00)
Language:

STARLINK-2733 - Orbit

View from above orbital plane
View from above orbital plane
View from above satellite
View from above satellite

Ground track
Ground track

The orbit data is extracted from the following two-line orbital elements,

1 48645U 21044H   21271.52831072  .00000701  00000-0  65940-4 0  9995
2 48645  53.0544 208.2579 0001667  67.7213 292.3952 15.06403077 19060
Epoch (UTC): 28 September 2021 12:40:46
Eccentricity: 0.0001667
inclination: 53.0544°
perigee height: 546 km
apogee height: 548 km
right ascension of ascending node: 208.2579°
argument of perigee: 67.7213°
revolutions per day: 15.06403077
mean anomaly at epoch: 292.3952°
orbit number at epoch: 1906

The dashed part of the orbit path shows where the satellite is in the earth's shadow,  

DLR